This demonstration page uses our WeatherBlox Daily Observations layout. Learn more.

Left ArrowRight Arrow

41.86663, -103.66717

Hourly Observations for April 28, 2016

Temp ( °F °C ) Dew Point ( °F °C ) Humidity (%) Winds ( mph kmh ) Pressure ( in mb ) Visibility ( mi km ) Precip ( " mm )
12:53 am 00:53 Cloudy 34 1.1 28 -2.2 79 79 NNW 7 11 29.95 1014 10 16 N/A
1:07 am 01:07 Cloudy 33 0.6 28 -2.2 82 82 N 6 9 30.03 1017 10 16 N/A
1:53 am 01:53 Partly Cloudy 30 -1.1 27 -2.8 88 88 WNW 5 7 29.96 1014 10 16 N/A
2:53 am 02:53 Mostly Clear 30 -1.1 27 -2.8 88 88 W 5 7 29.96 1014 10 16 N/A
3:13 am 03:13 Mostly Cloudy 31 -0.6 27 -2.8 85 85 NW 5 7 30.06 1018 10 16 N/A
3:53 am 03:53 Cloudy 33 0.6 28 -2.2 82 82 N N/A 29.96 1015 10 16 N/A
4:53 am 04:53 Cloudy 33 0.6 28 -2.2 82 82 N 5 7 29.97 1015 10 16 N/A
5:53 am 05:53 Mostly Cloudy 32 undefined 28 -2.2 85 85 N N/A 30.00 1016 10 16 N/A
6:53 am 06:53 Cloudy 33 0.6 29 -1.7 85 85 NE 3 6 30.02 1017 10 16 N/A
7:53 am 07:53 Mostly Cloudy 38 3.3 28 -2.2 68 68 NNW 9 15 30.01 1016 10 16 N/A
8:04 am 08:04 Partly Cloudy 37 3 27 -3 65 65 NNW 9 15 30.06 1018 10 16 N/A
8:44 am 08:44 Mostly Cloudy 39 4 28 -2 65 65 N 8 13 30.03 1017 10 16 N/A
8:53 am 08:53 Mostly Cloudy 39 3.9 27 -2.8 62 62 N 10 17 30.03 1017 10 16 N/A
9:53 am 09:53 Cloudy 39 3.9 27 -2.8 62 62 VRB 5 7 30.06 1018 10 16 N/A
10:41 am 10:41 Mostly Cloudy 42 5.6 28 -2.2 58 58 N 6 9 30.03 1017 10 16 N/A
10:53 am 10:53 Cloudy 43 6.1 31 -0.6 63 63 NE 10 17 30.03 1017 10 16 N/A
11:38 am 11:38 Cloudy 43 6 28 -2 57 57 NE 3 6 30.06 1018 10 16 N/A
11:53 am 11:53 Cloudy 42 5.6 29 -1.7 60 60 NE 6 9 30.05 1018 10 16 N/A
12:09 pm 12:09 Cloudy 43 6.1 28 -2.2 56 56 E 8 13 30.00 1016 10 16 N/A
12:53 pm 12:53 Cloudy 44 6.7 30 -1.1 58 58 ENE 8 13 30.03 1017 10 16 N/A
1:53 pm 13:53 Cloudy 45 7.2 29 -1.7 54 54 N 5 7 30.03 1017 10 16 N/A
2:53 pm 14:53 Cloudy 44 6.7 28 -2.2 53 53 VRB 3 6 30.04 1017 10 16 N/A
3:53 pm 15:53 Cloudy 43 6.1 29 -1.7 58 58 ESE 8 13 30.05 1018 10 16 N/A
4:51 pm 16:51 Cloudy with Light Rain 39 4 32 undefined 75 75 SE 8 13 30.12 1020 7 11 N/A
4:53 pm 16:53 Cloudy with Rain 39 3.9 32 undefined 76 76 SSE 8 13 30.10 1019 6 10 N/A
5:53 pm 17:53 Cloudy with Light Rain 37 2.8 34 1.1 89 89 ENE 8 13 30.09 1019 10 16 0.07 1.78
6:04 pm 18:04 Cloudy with Light Rain 37 3 34 1 87 87 ESE 5 7 30.12 1020 10 16 N/A
6:17 pm 18:17 Cloudy with Light Rain 37 2.8 34 1.1 89 89 SE 6 9 30.12 1020 10 16 N/A
6:28 pm 18:28 Cloudy 37 3 34 1 87 87 SSE 5 7 30.12 1020 10 16 N/A
6:53 pm 18:53 Cloudy 38 3.3 34 1.1 86 86 E 3 6 30.11 1020 10 16 N/A
7:08 pm 19:08 Cloudy 37 3 34 1 87 87 N N/A 30.12 1020 10 16 N/A
7:41 pm 19:41 Cloudy 38 3.3 34 1.1 86 86 SE 3 6 30.15 1021 10 16 N/A
7:53 pm 19:53 Cloudy 38 3.3 34 1.1 86 86 ESE 3 6 30.13 1020 10 16 N/A
8:07 pm 20:07 Cloudy 38 3.3 34 1.1 86 86 N N/A 30.15 1021 10 16 N/A
8:53 pm 20:53 Cloudy 38 3.3 34 1.1 86 86 NNE 3 6 30.14 1021 10 16 N/A
9:00 pm 21:00 Cloudy 37 3 36 2 93 93 N N/A 30.21 1023 10 16 N/A
9:33 pm 21:33 Cloudy 38 3.3 34 1.1 86 86 NNE 3 6 30.18 1022 10 16 N/A
9:53 pm 21:53 Cloudy 38 3.3 34 1.1 86 86 NE 5 7 30.14 1021 10 16 N/A
10:53 pm 22:53 Clear 35 1.7 32 undefined 89 89 E 5 7 30.11 1020 10 16 N/A
11:25 pm 23:25 Mostly Cloudy 35 1.7 33 0.6 93 93 N N/A 30.18 1022 10 16 N/A
11:53 pm 23:53 Mostly Cloudy 35 1.7 32 undefined 89 89 N N/A 30.13 1020 10 16 N/A

Powered by AerisWeather